Weather in Baglung

Nepal     28°16′03″N   83°35′58″E
temp.,
°C
wind,
m/s
gust,
m/s
humid.,
%
clouds,
%
prec.,
mm/h
press.,
hPa
HPBL,
m
14 april, wed
wed1423:45+13nnw33310 0.0 101647
02:45+12nnw33270 0.0 101446
05:45+12nnw33263 0.0 101540
08:45+25se11130 0.0 10141205
11:45+28s32110 0.0 10113566
14:45+28ssw441057 0.0 10084339
17:45+24sw231544 0.0 1008185
20:45+16nnw32235 0.0 101334
15 april, thu
thu1523:45+14nnw33273 0.0 101442
02:45+13nnw33270 0.0 101245
05:45+13nnw342590 0.0 101349
08:45+26ese011266 0.0 10121629
11:45+29s359100 0.0 10094644
14:45+25n2414100 0.0 10072560
17:45+20nnw342887 0.0 1010440
20:45+15nnw343435 0.0 101351
16 april, fri
fri1623:45+14nnw343139 0.0 101248
02:45+14nnw34271 0.0 101149
05:45+13nnw33252 0.0 101246
08:45+26ne011342 0.0 10111598
11:45+29s34992 0.0 10085008
14:45+28ssw2510100 0.0 10064353
17:45+21nne4523100 0.0 1010375
20:45+15nnw33355 0.0 101345
17 april, sat
sat1723:45+14nnw34331 0.0 101252
02:45+14nnw34291 0.0 101247
05:45+13nnw34285 0.0 101449
08:45+26sse12145 0.0 10121626
11:45+28ssw4512100 0.0 10104314
14:45+24wnw472192 0.1 10103263
17:45+23ene122657 0.1 1009253
20:45+15nnw346381 0.6 101683
18 april, sun
sun1823:45+13nnw3353100 0.6 101544
02:45+13nnw33460 0.0 101339
05:45+12nnw32401 0.0 101538
08:45+24sse11220 0.0 10131930
11:45+27s461257 0.0 10104581
14:45+27sw561034 0.0 10074083
17:45+23sw35173 0.0 10061572
20:45+15nw32290 0.0 101131